Terug naar catalogus

SNAP-3 JIMI

ActiefWetenschapLEO
NORAD 40975·PAYLOAD·🇺🇸 United States

Gelanceerd Oct 8, 2015 vanaf Vandenberg Space Force Base

Loading…

Volgende Passages (komende 24 uur)

TLE

VersSource: Space-Track

Epoch: Sep 14, 2026, 02:20 UTC

1 40975U 15058M   26257.09752675  .00003855  00000-0  25969-3 0  9992
2 40975  64.7639 298.2531 0113437  21.0501 339.5230 15.03136193127580

Volg SNAP-3 JIMI in realtime met AllMySat

Download on the App Store